• In Hungary
  • List of Countries
  • For 7 days
  • Water Temperature
  • Satellite Maps
  • Weather Map
  • News
  • Weather Widgets
  • user-avatar
    Login

    Hourly Weather Makadi Bey

    Today, 17 August, Thursday

    Time Temperature Precipitation Wind Pressure Humidity
    00:00 +30°C° 0 mm 2 mps 702 mmHg 30%
    01:00 +29°C° 0 mm 2 mps 701 mmHg 32%
    02:00 +28°C° 0 mm 1 mps 701 mmHg 36%
    03:00 +28°C° 0 mm 1 mps 701 mmHg 38%
    04:00 +27°C° 0 mm 1 mps 702 mmHg 40%
    05:00 +27°C° 0 mm 1 mps 702 mmHg 42%
    06:00 +28°C° 0 mm 1 mps 702 mmHg 39%
    07:00 +29°C° 0 mm 2 mps 702 mmHg 36%
    08:00 +31°C° 0 mm 2 mps 703 mmHg 35%
    09:00 +32°C° 0 mm 2 mps 703 mmHg 31%
    10:00 +35°C° 0 mm 2 mps 704 mmHg 26%
    11:00 +36°C° 0 mm 3 mps 704 mmHg 22%
    12:00 +37°C° 0 mm 3 mps 704 mmHg 20%
    13:00 +38°C° 0 mm 3 mps 704 mmHg 18%
    14:00 +40°C° 0 mm 4 mps 703 mmHg 17%
    15:00 +38°C° 0 mm 4 mps 703 mmHg 17%
    16:00 +38°C° 0 mm 3 mps 703 mmHg 17%
    17:00 +38°C° 0 mm 3 mps 703 mmHg 18%
    18:00 +37°C° 0 mm 3 mps 703 mmHg 20%
    19:00 +35°C° 0 mm 2 mps 703 mmHg 23%
    20:00 +34°C° 0 mm 2 mps 703 mmHg 25%
    21:00 +34°C° 0 mm 2 mps 703 mmHg 27%
    22:00 +32°C° 0 mm 2 mps 703 mmHg 29%
    23:00 +31°C° 0 mm 1 mps 703 mmHg 31%

    Tomorrow, 18 August, Friday

    Time Temperature Precipitation Wind Pressure Humidity
    00:00 +31°C° 0 mm 1 mps 703 mmHg 31%
    01:00 +30°C° 0 mm 1 mps 703 mmHg 32%
    02:00 +30°C° 0 mm 1 mps 703 mmHg 33%
    03:00 +29°C° 0 mm 1 mps 703 mmHg 33%
    04:00 +29°C° 0 mm 1 mps 703 mmHg 34%
    05:00 +28°C° 0 mm 1 mps 703 mmHg 34%
    06:00 +30°C° 0 mm 1 mps 704 mmHg 31%
    07:00 +31°C° 0 mm 1 mps 704 mmHg 28%
    08:00 +33°C° 0 mm 1 mps 705 mmHg 26%
    09:00 +35°C° 0 mm 2 mps 705 mmHg 23%
    10:00 +36°C° 0 mm 3 mps 705 mmHg 20%
    11:00 +38°C° 0 mm 3 mps 705 mmHg 17%
    12:00 +38°C° 0 mm 3 mps 705 mmHg 16%
    13:00 +39°C° 0 mm 3 mps 705 mmHg 15%
    14:00 +40°C° 0 mm 4 mps 704 mmHg 15%
    15:00 +39°C° 0 mm 3 mps 704 mmHg 15%
    16:00 +38°C° 0 mm 2 mps 704 mmHg 16%
    17:00 +38°C° 0 mm 2 mps 704 mmHg 17%
    18:00 +36°C° 0 mm 1 mps 704 mmHg 18%
    19:00 +35°C° 0 mm 1 mps 704 mmHg 19%
    20:00 +34°C° 0 mm 1 mps 704 mmHg 20%
    21:00 +34°C° 0 mm 1 mps 704 mmHg 21%
    22:00 +33°C° 0 mm 1 mps 704 mmHg 21%
    23:00 +33°C° 0 mm 1 mps 704 mmHg 22%

    Day after tomorrow, 19 August, Saturday

    Time Temperature Precipitation Wind Pressure Humidity
    00:00 +32°C° 0 mm 2 mps 704 mmHg 22%
    01:00 +32°C° 0 mm 2 mps 703 mmHg 23%
    02:00 +31°C° 0 mm 2 mps 703 mmHg 23%
    03:00 +31°C° 0 mm 2 mps 703 mmHg 24%
    04:00 +30°C° 0 mm 2 mps 703 mmHg 24%
    05:00 +30°C° 0 mm 2 mps 703 mmHg 25%
    06:00 +31°C° 0 mm 2 mps 704 mmHg 23%
    07:00 +34°C° 0 mm 2 mps 704 mmHg 21%
    08:00 +35°C° 0 mm 2 mps 705 mmHg 19%
    09:00 +37°C° 0 mm 3 mps 705 mmHg 17%
    10:00 +38°C° 0 mm 4 mps 705 mmHg 15%
    11:00 +41°C° 0 mm 4 mps 705 mmHg 13%
    12:00 +41°C° 0 mm 5 mps 705 mmHg 12%
    13:00 +42°C° 0 mm 5 mps 705 mmHg 11%
    14:00 +42°C° 0 mm 6 mps 704 mmHg 10%
    15:00 +42°C° 0 mm 6 mps 704 mmHg 11%
    16:00 +42°C° 0 mm 6 mps 704 mmHg 11%
    17:00 +41°C° 0 mm 6 mps 704 mmHg 11%
    18:00 +40°C° 0 mm 5 mps 704 mmHg 13%
    19:00 +38°C° 0 mm 4 mps 704 mmHg 14%
    20:00 +37°C° 0 mm 3 mps 704 mmHg 16%
    21:00 +36°C° 0 mm 3 mps 704 mmHg 16%
    22:00 +35°C° 0 mm 3 mps 704 mmHg 17%
    23:00 +35°C° 0 mm 3 mps 704 mmHg 18%

    20 August, Sunday

    Time Temperature Precipitation Wind Pressure Humidity
    00:00 +34°C° 0 mm 3 mps 704 mmHg 19%
    01:00 +33°C° 0 mm 3 mps 703 mmHg 20%
    02:00 +33°C° 0 mm 3 mps 703 mmHg 21%
    03:00 +31°C° 0 mm 3 mps 703 mmHg 22%
    04:00 +31°C° 0 mm 3 mps 703 mmHg 23%
    05:00 +30°C° 0 mm 3 mps 703 mmHg 24%
    06:00 +33°C° 0 mm 4 mps 704 mmHg 22%
    07:00 +35°C° 0 mm 4 mps 704 mmHg 20%
    08:00 +36°C° 0 mm 5 mps 704 mmHg 18%
    09:00 +37°C° 0 mm 5 mps 704 mmHg 16%
    10:00 +40°C° 0 mm 6 mps 704 mmHg 15%
    11:00 +41°C° 0 mm 6 mps 705 mmHg 13%
    12:00 +42°C° 0 mm 6 mps 704 mmHg 12%
    13:00 +42°C° 0 mm 6 mps 704 mmHg 12%
    14:00 +44°C° 0 mm 6 mps 703 mmHg 12%
    15:00 +42°C° 0 mm 6 mps 703 mmHg 13%
    16:00 +42°C° 0 mm 6 mps 703 mmHg 13%
    17:00 +42°C° 0 mm 5 mps 703 mmHg 14%
    18:00 +40°C° 0 mm 5 mps 703 mmHg 17%
    19:00 +38°C° 0 mm 4 mps 703 mmHg 19%
    20:00 +37°C° 0 mm 4 mps 703 mmHg 21%
    21:00 +36°C° 0 mm 4 mps 703 mmHg 22%
    22:00 +35°C° 0 mm 4 mps 703 mmHg 23%
    23:00 +35°C° 0 mm 4 mps 703 mmHg 24%

    21 August, Monday

    Time Temperature Precipitation Wind Pressure Humidity
    00:00 +34°C° 0 mm 4 mps 702 mmHg 26%
    01:00 +33°C° 0 mm 4 mps 702 mmHg 28%
    02:00 +33°C° 0 mm 4 mps 702 mmHg 30%
    03:00 +32°C° 0 mm 4 mps 702 mmHg 32%
    04:00 +32°C° 0 mm 4 mps 702 mmHg 34%
    05:00 +30°C° 0 mm 4 mps 702 mmHg 36%
    06:00 +32°C° 0 mm 4 mps 702 mmHg 33%
    07:00 +33°C° 0 mm 4 mps 703 mmHg 30%
    08:00 +35°C° 0 mm 4 mps 703 mmHg 27%
    09:00 +36°C° 0 mm 5 mps 703 mmHg 23%
    10:00 +39°C° 0 mm 5 mps 703 mmHg 20%
    11:00 +41°C° 0 mm 5 mps 703 mmHg 17%
    12:00 +42°C° 0 mm 6 mps 703 mmHg 15%
    13:00 +42°C° 0 mm 6 mps 703 mmHg 14%
    14:00 +44°C° 0 mm 6 mps 702 mmHg 13%
    15:00 +44°C° 0 mm 6 mps 702 mmHg 13%
    16:00 +42°C° 0 mm 6 mps 702 mmHg 13%
    17:00 +43°C° 0 mm 7 mps 702 mmHg 13%
    18:00 +41°C° 0 mm 6 mps 702 mmHg 15%
    19:00 +39°C° 0 mm 6 mps 702 mmHg 16%
    20:00 +37°C° 0 mm 5 mps 702 mmHg 18%
    21:00 +36°C° 0 mm 4 mps 702 mmHg 19%
    22:00 +35°C° 0 mm 4 mps 702 mmHg 20%
    23:00 +34°C° 0 mm 3 mps 702 mmHg 21%

    22 August, Tuesday

    Time Temperature Precipitation Wind Pressure Humidity
    00:00 +33°C° 0 mm 3 mps 702 mmHg 23%
    01:00 +33°C° 0 mm 3 mps 702 mmHg 25%
    02:00 +31°C° 0 mm 2 mps 702 mmHg 27%
    03:00 +30°C° 0 mm 2 mps 702 mmHg 29%
    04:00 +30°C° 0 mm 3 mps 702 mmHg 31%
    05:00 +29°C° 0 mm 3 mps 702 mmHg 33%
    06:00 +31°C° 0 mm 3 mps 702 mmHg 30%
    07:00 +33°C° 0 mm 3 mps 703 mmHg 28%
    08:00 +34°C° 0 mm 3 mps 703 mmHg 25%
    09:00 +36°C° 0 mm 4 mps 703 mmHg 22%
    10:00 +39°C° 0 mm 5 mps 703 mmHg 18%
    11:00 +41°C° 0 mm 6 mps 702 mmHg 15%
    12:00 +42°C° 0 mm 6 mps 702 mmHg 14%
    13:00 +42°C° 0 mm 5 mps 702 mmHg 14%
    14:00 +43°C° 0 mm 5 mps 701 mmHg 14%
    15:00 +43°C° 0 mm 5 mps 701 mmHg 14%
    16:00 +42°C° 0 mm 5 mps 701 mmHg 15%
    17:00 +42°C° 0 mm 5 mps 701 mmHg 15%
    18:00 +41°C° 0 mm 4 mps 701 mmHg 17%
    19:00 +38°C° 0 mm 3 mps 701 mmHg 20%
    20:00 +37°C° 0 mm 3 mps 701 mmHg 22%
    21:00 +36°C° 0 mm 3 mps 701 mmHg 23%
    22:00 +35°C° 0 mm 3 mps 701 mmHg 25%
    23:00 +34°C° 0 mm 3 mps 700 mmHg 26%
    Show more